[[{"header":{"parameterUnit":"m.s-1","parameterCategory":1,"la1":30.2991,"la2":30.254,"lo1":-89.0895,"lo2":-89.0444,"dy":0.0017,"dx":0.0017,"nx":28,"ny":28,"refTime":"2025-01-18T03:00:00:Z","depth":0,"parameterNumber":2,"parameterNumberName":"U-component_of_WINDS"},"data":[0,0,0,0,0,0,0,0,0,0,0,0,0,0,0,0,0,0,0,0,0,0,0,0,0,0,0,0,0,0,0,0,0,0,0,0,0,0,0,0,0,0,0,0,0,0,0,0,0,0,0,0,0,0,0,0,0,0,3.8004,3.8004,0,3.8047,3.8047,3.8048,3.8018,3.8016,3.8015,3.8014,3.8057,3.8059,3.8061,0,0,0,0,0,0,0,0,0,0,0,0,0,3.7897,3.7899,3.8004,3.8004,3.8005,3.8047,3.8047,3.8048,3.8018,3.8016,3.8015,3.8013,3.8056,3.8059,3.8062,0,0,0,0,0,0,0,0,0,0,0,0,0,3.7942,3.7899,3.8004,3.7995,3.7995,3.8047,3.8047,3.8048,3.8018,3.8016,3.8014,3.8012,3.8055,3.8058,3.8062,3.8124,0,0,3.8073,3.8075,0,0,0,0,0,0,0,0,3.7939,3.7946,3.7996,3.7996,3.7995,3.8025,3.8025,3.8074,3.8019,3.8009,3.8014,3.8011,3.8048,3.8052,3.8064,3.8126,3.8128,3.8073,3.8075,3.8077,3.8078,0,0,0,0,0,0,0,3.7936,3.7944,3.8021,3.7997,3.7996,3.7989,3.7993,3.8034,3.8039,3.801,3.8008,3.8014,3.8047,3.8061,3.8065,3.8129,3.8073,3.8076,3.8079,3.808,3.8247,3.8249,0,0,0,0,0,0,3.7934,3.7941,3.8019,3.8022,3.7962,3.7993,3.7998,3.8017,3.8039,3.804,3.8015,3.8012,3.8056,3.8061,3.8066,3.8142,3.8077,3.808,3.8082,3.8245,3.8248,3.825,0,0,0,0,0,0,3.7932,3.7941,3.8018,3.7981,3.799,3.7997,3.8019,3.8019,3.8033,3.8043,3.8043,3.8028,3.8054,3.8061,3.8111,3.8143,3.8082,3.8085,3.8242,3.8246,3.8249,3.8294,0,0,0,0,0,0,3.7929,3.794,3.7964,3.7982,3.7992,3.8061,3.8021,3.8022,3.8039,3.8036,3.8055,3.8056,3.8053,3.8106,3.8115,3.8147,3.8088,3.8239,3.8244,3.8248,3.829,3.8299,3.8306,0,0,0,0,0,3.7925,3.7974,3.7965,3.7975,3.8022,3.8063,3.8069,3.8065,3.8042,3.8066,3.8073,3.8056,3.8139,3.8111,3.8121,3.8155,3.8237,3.8243,3.8248,3.8286,3.8297,3.8306,0,0,0,0,0,0,3.7958,3.7976,3.7966,3.8023,3.8042,3.8058,3.8088,3.8076,3.8102,3.8097,3.8091,3.8095,3.8148,3.8156,3.8125,3.8218,3.8184,3.8192,3.821,3.8221,3.8229,3.8225,3.8091,0,0,0,0,0,3.7973,3.8005,3.8018,3.8067,3.8077,3.8081,3.8099,3.8094,3.8114,3.8121,3.8131,3.8151,3.8181,3.8201,3.823,3.8291,3.8296,3.832,3.8328,3.8335,3.8341,3.8376,3.8387,3.8267,3.8267,3.8267,0,0,3.8001,3.8015,3.8036,3.8074,3.8088,3.8122,3.8088,3.8124,3.815,3.8127,3.8175,3.8183,3.8204,3.8261,3.8286,3.8269,3.8375,3.8341,3.8347,3.8349,3.8382,3.8394,3.8404,3.8271,3.827,3.827,0,0,3.8072,3.8085,3.8128,3.8144,3.8166,3.8169,3.8179,3.8198,3.8203,3.8251,3.8235,3.8266,3.8318,3.8334,3.835,3.843,3.8416,3.8439,3.8482,3.8516,3.8526,3.8534,3.8564,3.8574,3.8446,3.8446,3.8446,0,3.8105,3.8155,3.8151,3.819,3.8208,3.819,3.8234,3.8249,3.828,3.8293,3.8274,3.8341,3.8354,3.8415,3.8435,3.8447,3.846,3.8436,3.8525,3.8533,3.8541,3.8569,3.858,3.8448,3.8448,3.8448,3.8448,0,3.8196,3.8231,3.8263,3.8295,3.8316,3.8357,3.836,3.8382,3.8377,3.8382,3.8432,3.8448,3.848,3.8494,3.8488,3.8555,3.8544,3.8526,3.8492,3.8555,3.8582,3.8592,3.8452,3.8451,3.8451,3.845,0,0,3.8286,3.8317,3.8329,3.8344,3.8369,3.8396,3.8437,3.847,3.849,3.8512,3.8547,3.8594,3.8577,3.8594,3.8591,3.8621,3.8685,3.8598,3.8599,3.8615,3.8761,3.8775,3.8788,3.8676,3.8678,3.868,3.876,0,3.8359,3.8431,3.843,3.8496,3.853,3.8515,3.8551,3.8571,3.8577,3.8607,3.8614,3.8648,3.8623,3.8634,3.8663,3.8671,3.8714,3.8665,3.8709,3.8711,3.8704,3.8801,3.8816,3.889,3.877,3.8772,3.8773,0,3.8452,3.848,3.855,3.8573,3.8587,3.8619,3.865,3.8678,3.8701,3.8704,3.8725,3.8717,3.876,3.8726,3.8785,3.8752,3.877,3.8778,3.878,3.8784,3.8745,3.8808,3.8914,3.8925,3.8789,3.8788,3.8786,0,3.8513,3.8567,3.8617,3.863,3.8657,3.868,3.8693,3.8713,3.8734,3.8761,3.8774,3.8806,3.8824,3.8849,3.885,3.8825,3.8911,3.8876,3.8915,3.8915,3.8933,3.8932,3.9044,3.8945,3.8945,3.8944,3.8944,0,3.8594,3.8638,3.8645,3.8675,3.8725,3.8724,3.8773,3.8783,3.8802,3.8835,3.8824,3.8855,3.8855,3.8887,3.8889,3.8939,3.8946,3.895,3.895,3.8951,3.8951,3.8963,3.8958,3.8947,3.8947,3.8946,3.8946,0,3.8669,3.8675,3.8729,3.8751,3.8758,3.8793,3.8812,3.8842,3.8848,3.889,3.89,3.891,3.8948,3.8952,3.8995,3.8997,3.9057,3.9051,3.905,3.9049,3.9088,3.9084,3.9211,3.9228,3.9118,3.9119,3.912,0,3.872,3.8754,3.8781,3.8802,3.8816,3.8851,3.8873,3.8873,3.8896,3.8926,3.8953,3.8989,3.9019,3.9079,3.9091,3.9125,3.912,3.9162,3.9125,3.9126,3.9121,3.9119,3.9123,3.9169,3.917,3.9171,3.9172,0,3.8811,3.8813,3.8845,3.8878,3.8905,3.8931,3.8955,3.8974,3.8978,3.9004,3.9043,3.9066,3.9112,3.9148,3.9182,3.9195,3.9185,3.9184,3.9195,3.9196,3.9194,3.9197,3.907,3.9181,3.918,3.9179,3.9179,3.9178,3.8877,3.8907,3.8931,3.8967,3.8986,3.901,3.904,3.9051,3.9083,3.9121,3.9119,3.9163,3.9187,3.9231,3.9247,3.9281,3.9267,3.9282,3.9286,3.929,3.9295,3.9189,3.9287,3.9287,3.9286,3.9286,3.9286,0,3.8968,3.8983,3.9016,3.9052,3.9081,3.907,3.9097,3.9122,3.916,3.9184,3.9214,3.9259,3.9296,3.9311,3.9347,3.9372,3.9368,3.9381,3.9379,3.9383,3.9305,3.9292,3.9384,3.9384,3.9384,3.9384,3.9384,3.9384,3.9019,3.907,3.9075,3.9136,3.9151,3.9194,3.921,3.9233,3.9252,3.9304,3.9334,3.9344,3.9365,3.9403,3.9437,3.944,3.9454,3.947,3.9471,3.9398,3.9388,3.9379,3.9367,3.9473,3.9473,3.9547,3.9548,3.9548]},{"header":{"parameterUnit":"m.s-1","parameterCategory":1,"la1":30.2991,"la2":30.254,"lo1":-89.0895,"lo2":-89.0444,"dy":0.0017,"dx":0.0017,"nx":28,"ny":28,"refTime":"2025-01-18T03:00:00:Z","depth":0,"parameterNumber":3,"parameterNumberName":"V-component_of_WINDS"},"data":[0,0,0,0,0,0,0,0,0,0,0,0,0,0,0,0,0,0,0,0,0,0,0,0,0,0,0,0,0,0,0,0,0,0,0,0,0,0,0,0,0,0,0,0,0,0,0,0,0,0,0,0,0,0,0,0,0,0,-7.4282,-7.4284,0,-7.4397,-7.4398,-7.44,-7.4374,-7.4372,-7.437,-7.4368,-7.448,-7.4485,-7.449,0,0,0,0,0,0,0,0,0,0,0,0,0,-7.4038,-7.4043,-7.4282,-7.4284,-7.4285,-7.4397,-7.4398,-7.44,-7.4375,-7.4372,-7.4369,-7.4367,-7.4478,-7.4484,-7.449,0,0,0,0,0,0,0,0,0,0,0,0,0,-7.4147,-7.4044,-7.4282,-7.4286,-7.4288,-7.4397,-7.4399,-7.44,-7.4375,-7.4372,-7.4369,-7.4366,-7.4477,-7.4484,-7.4491,-7.4601,0,0,-7.4514,-7.4517,0,0,0,0,0,0,0,0,-7.4141,-7.4156,-7.4284,-7.4286,-7.4288,-7.4368,-7.4353,-7.4468,-7.4376,-7.4342,-7.4368,-7.4364,-7.4445,-7.4455,-7.4483,-7.4607,-7.4612,-7.4515,-7.4519,-7.4522,-7.4524,0,0,0,0,0,0,0,-7.4134,-7.4151,-7.4327,-7.4286,-7.4288,-7.4281,-7.4293,-7.4375,-7.441,-7.4345,-7.4343,-7.4357,-7.4445,-7.4476,-7.4486,-7.4613,-7.4514,-7.4521,-7.4526,-7.4529,-7.4835,-7.4839,0,0,0,0,0,0,-7.4125,-7.4145,-7.4324,-7.4331,-7.4205,-7.4288,-7.4302,-7.4346,-7.4409,-7.4416,-7.436,-7.4356,-7.4465,-7.4477,-7.449,-7.4625,-7.4522,-7.4529,-7.4534,-7.4832,-7.4836,-7.484,0,0,0,0,0,0,-7.412,-7.4141,-7.4319,-7.4238,-7.426,-7.4296,-7.4345,-7.435,-7.438,-7.4421,-7.4426,-7.4385,-7.4463,-7.4479,-7.4575,-7.4628,-7.4533,-7.4539,-7.4827,-7.4833,-7.4838,-7.4895,0,0,0,0,0,0,-7.4113,-7.414,-7.4182,-7.4239,-7.4264,-7.4404,-7.4349,-7.4354,-7.4394,-7.4389,-7.4446,-7.4452,-7.4462,-7.4564,-7.4582,-7.4637,-7.4545,-7.4823,-7.483,-7.4836,-7.4888,-7.4902,-7.4913,0,0,0,0,0,-7.4104,-7.4192,-7.4185,-7.4206,-7.4319,-7.4407,-7.4421,-7.4432,-7.4398,-7.4441,-7.4468,-7.445,-7.4619,-7.4574,-7.4594,-7.4652,-7.4819,-7.4828,-7.4836,-7.4883,-7.4899,-7.4913,0,0,0,0,0,0,-7.4138,-7.4199,-7.4192,-7.4301,-7.4349,-7.4402,-7.4457,-7.4449,-7.4506,-7.4499,-7.4509,-7.4522,-7.462,-7.4645,-7.4593,-7.4763,-7.4714,-7.4727,-7.4743,-7.4759,-7.4771,-7.4763,-7.4552,0,0,0,0,0,-7.4159,-7.4226,-7.4275,-7.4367,-7.4392,-7.4421,-7.4459,-7.4464,-7.4513,-7.4533,-7.4566,-7.4614,-7.4678,-7.4719,-7.478,-7.4892,-7.4904,-7.4942,-7.4954,-7.4964,-7.4975,-7.5038,-7.5055,-7.4867,-7.4867,-7.4867,0,0,-7.4201,-7.4243,-7.4284,-7.4375,-7.4413,-7.4482,-7.4438,-7.4512,-7.4563,-7.4543,-7.4637,-7.4663,-7.4717,-7.4822,-7.4869,-7.4846,-7.503,-7.4974,-7.4982,-7.4988,-7.5048,-7.5066,-7.5081,-7.4873,-7.4872,-7.4871,0,0,-7.4314,-7.4352,-7.4433,-7.4473,-7.4532,-7.4552,-7.4571,-7.4627,-7.4644,-7.4739,-7.4726,-7.4786,-7.4896,-7.4936,-7.497,-7.5101,-7.5088,-7.5121,-7.5185,-7.5246,-7.5261,-7.5274,-7.5322,-7.5339,-7.5131,-7.5132,-7.5132,0,-7.4358,-7.4463,-7.4476,-7.4553,-7.4593,-7.4582,-7.4664,-7.4702,-7.4777,-7.4805,-7.4778,-7.4918,-7.4952,-7.5067,-7.51,-7.5128,-7.5151,-7.5114,-7.5258,-7.5271,-7.5284,-7.533,-7.5348,-7.5135,-7.5135,-7.5135,-7.5134,0,-7.4516,-7.4589,-7.4648,-7.4724,-7.4771,-7.485,-7.4874,-7.492,-7.4921,-7.4943,-7.504,-7.5082,-7.5153,-7.518,-7.5181,-7.5296,-7.528,-7.5256,-7.5207,-7.5305,-7.5349,-7.5366,-7.5141,-7.5139,-7.5138,-7.5137,0,0,-7.4651,-7.4736,-7.4757,-7.4793,-7.4859,-7.4915,-7.4994,-7.5065,-7.5105,-7.5158,-7.5224,-7.5319,-7.5298,-7.5337,-7.5342,-7.5396,-7.5499,-7.5365,-7.5367,-7.539,-7.563,-7.5649,-7.5669,-7.5491,-7.5494,-7.5497,-7.5626,0,-7.4771,-7.4913,-7.4927,-7.5053,-7.5122,-7.5113,-7.5182,-7.523,-7.5253,-7.5313,-7.5337,-7.5405,-7.5371,-7.5396,-7.5448,-7.5476,-7.5548,-7.5466,-7.5552,-7.5555,-7.554,-7.5691,-7.5711,-7.5831,-7.5643,-7.5646,-7.5648,0,-7.4929,-7.499,-7.5124,-7.5183,-7.5212,-7.5274,-7.5342,-7.54,-7.5454,-7.5467,-7.5513,-7.5511,-7.5592,-7.5541,-7.5653,-7.5597,-7.5634,-7.5653,-7.5658,-7.5666,-7.5608,-7.5705,-7.5869,-7.5888,-7.5675,-7.5672,-7.567,0,-7.5016,-7.5131,-7.5227,-7.5257,-7.5328,-7.5372,-7.5403,-7.5454,-7.5497,-7.5556,-7.5584,-7.565,-7.5687,-7.5738,-7.5755,-7.5716,-7.5867,-7.5816,-7.588,-7.588,-7.5912,-7.591,-7.6085,-7.5934,-7.5934,-7.5934,-7.5933,0,-7.5149,-7.5231,-7.5268,-7.5326,-7.5419,-7.5435,-7.5526,-7.5554,-7.56,-7.5664,-7.566,-7.5719,-7.5738,-7.58,-7.5814,-7.5906,-7.5921,-7.5934,-7.5937,-7.5935,-7.5934,-7.5959,-7.5951,-7.5939,-7.5938,-7.5937,-7.5936,0,-7.5262,-7.5289,-7.5393,-7.5453,-7.547,-7.5536,-7.5586,-7.5643,-7.5666,-7.5747,-7.5766,-7.5802,-7.5876,-7.5898,-7.5986,-7.5995,-7.6103,-7.6098,-7.6086,-7.6086,-7.6149,-7.6143,-7.6347,-7.6375,-7.6205,-7.6207,-7.6208,0,-7.5344,-7.5408,-7.5476,-7.552,-7.5554,-7.5623,-7.5668,-7.5687,-7.5733,-7.5801,-7.585,-7.5924,-7.5984,-7.6102,-7.6135,-7.6203,-7.62,-7.6267,-7.621,-7.6207,-7.6202,-7.6199,-7.6206,-7.6277,-7.6279,-7.6281,-7.6282,0,-7.5489,-7.5501,-7.5566,-7.5638,-7.5692,-7.5749,-7.5803,-7.5839,-7.5865,-7.5917,-7.5995,-7.6042,-7.6134,-7.6207,-7.6277,-7.6307,-7.63,-7.63,-7.6318,-7.6317,-7.6308,-7.6315,-7.6116,-7.6295,-7.6293,-7.6292,-7.6292,-7.6291,-7.5591,-7.5648,-7.5706,-7.5779,-7.5823,-7.5875,-7.5932,-7.5963,-7.6029,-7.6107,-7.6113,-7.6197,-7.6251,-7.6344,-7.6379,-7.6444,-7.6424,-7.645,-7.6457,-7.6464,-7.647,-7.6298,-7.6456,-7.6456,-7.6455,-7.6455,-7.6455,0,-7.5736,-7.5774,-7.5842,-7.592,-7.5978,-7.5968,-7.6028,-7.6077,-7.6152,-7.6204,-7.6264,-7.6354,-7.6426,-7.6466,-7.6537,-7.6582,-7.658,-7.66,-7.6597,-7.6605,-7.6482,-7.646,-7.6601,-7.6601,-7.6601,-7.66,-7.66,-7.66,-7.5819,-7.5916,-7.5935,-7.6054,-7.609,-7.6174,-7.621,-7.6258,-7.63,-7.6401,-7.6462,-7.6488,-7.6535,-7.6611,-7.6676,-7.6686,-7.6713,-7.6736,-7.6743,-7.6628,-7.6613,-7.6599,-7.6578,-7.6741,-7.6741,-7.686,-7.6861,-7.6862]}]]